This is the latest recevied weather packets stored in our database for station/object WE0DX-1. If no packets are shown the sender has not sent any weather packets the latest 10 day(s).
| Time | Temp. | Humidity | Pressure | Rain* | Wind** | Luminosity | Snow |
|---|---|---|---|---|---|---|---|
| 1777502508 | 15.56° C | 48% | 1017.3 hPa | 0 mm | - | 85 W/m² | - |
| 1777502205 | 15.56° C | 49% | 1017.5 hPa | 0 mm | - | 87 W/m² | - |
| 1777501902 | 15° C | 46% | 1017.3 hPa | 0 mm | - | 83 W/m² | - |
| 1777501599 | 15.56° C | 47% | 1017.2 hPa | 0 mm | - | 84 W/m² | - |
| 1777501296 | 15.56° C | 48% | 1017.6 hPa | 0 mm | - | 88 W/m² | - |
| 1777500994 | 15° C | 49% | 1017.5 hPa | 0 mm | - | 97 W/m² | - |
| 1777500692 | 15° C | 50% | 1017.3 hPa | 0 mm | - | 112 W/m² | - |
| 1777500388 | 15° C | 50% | 1017.4 hPa | 0 mm | - | 104 W/m² | - |
| 1777500084 | 15° C | 49% | 1017.3 hPa | 0 mm | - | 123 W/m² | - |
| 1777499781 | 15° C | 49% | 1017.3 hPa | 0 mm | - | 130 W/m² | - |
| 1777499477 | 15° C | 50% | 1017.7 hPa | 0 mm | - | 140 W/m² | - |
| 1777499176 | 15° C | 50% | 1017.6 hPa | 0 mm | - | 138 W/m² | - |
| 1777498872 | 15° C | 50% | 1017.3 hPa | 0 mm | - | 144 W/m² | - |
| 1777498569 | 15.56° C | 50% | 1017.8 hPa | 0 mm | - | 157 W/m² | - |
| 1777498265 | 15° C | 51% | 1017.5 hPa | 0 mm | - | 184 W/m² | - |
| 1777497964 | 15° C | 49% | 1017.5 hPa | 0 mm | - | 173 W/m² | - |
| 1777497659 | 15° C | 52% | 1017.5 hPa | 0 mm | - | 176 W/m² | - |
| 1777497356 | 15° C | 52% | 1017.6 hPa | 0 mm | - | 157 W/m² | - |
| 1777497051 | 15° C | 51% | 1017.8 hPa | 0 mm | - | 161 W/m² | - |
| 1777496748 | 15° C | 50% | 1017.8 hPa | 0 mm | - | 170 W/m² | - |
| 1777496445 | 15° C | 51% | 1017.9 hPa | 0 mm | - | 174 W/m² | - |
| 1777496142 | 15° C | 52% | 1018.1 hPa | 0 mm | - | 195 W/m² | - |
| 1777495838 | 15° C | 50% | 1018.2 hPa | 0 mm | - | 239 W/m² | - |
| 1777495534 | 15° C | 49% | 1018.2 hPa | 0 mm | - | 245 W/m² | - |
| 1777495230 | 15° C | 51% | 1018.4 hPa | 0 mm | - | 222 W/m² | - |
* Rain latest hour (hover to see other rain measurements)
** Current wind speed in m/s (hover to see current wind gust speed)